Regional Weather Roundup
Issued by NWS Albany, NY

Home | Current Version | Previous Version | Graphics & Text | Print | Product List | Glossary Off
Versions: 1 2 3 4 5 6 7 8 9 10 11 12 13 14 15 16 17 18 19 20 21 22 23 24 25 26 27 28 29 30 31 32 33 34 35 36 37 38 39 40 41 42 43 44 45 46 47 48 49 50

000
ASUS41 KALY 260010
RWRALY

NEW YORK STATE HOURLY WEATHER ROUNDUP
NATIONAL WEATHER SERVICE ALBANY NY
800 PM EDT MON MAY 25 2015

NOTE: "FAIR" INDICATES FEW OR NO CLOUDS BELOW 12,000 FEET WITH NO
SIGNIFICANT WEATHER AND/OR NO OBSTRUCTIONS TO VISIBILITY.

NYZ032-033-038>043-046>054-057>066-NYZ062>081-260100-
EAST


CITY           SKY/WX    TMP DP  RH WIND       PRES   REMARKS
ALBANY         MOCLDY    83  55  38 S13       30.04S
GLENS FALLS    CLOUDY    74  63  68 CALM      30.03
POUGHKEEPSIE   MOCLDY    80  58  46 SE6       30.10S
NEWBURGH       PTCLDY    82  59  44 SW12      30.13S
WHITE PLAINS   PTCLDY    73  58  59 S7G16     30.16S
ISLIP          MOCLDY    68  56  65 SW21G30   30.19S
NEW YORK CITY  MOCLDY    78  56  46 S13       30.16R
CENTRAL PARK   PTCLDY    81  55  40 MISG      30.18S
$$

NYZ005>009-017-018-044>046-055-056-260100-
CENTRAL


CITY           SKY/WX    TMP DP  RH WIND       PRES   REMARKS
FULTON         CLOUDY    73  65  75 CALM      29.99F
SYRACUSE       CLOUDY    77  62  59 CALM      30.00S
ROME           CLOUDY    75  60  59 SE3       30.03F
ELMIRA         CLOUDY    80  58  46 S8        30.05S
BINGHAMTON     CLOUDY    75  54  47 SW9G23    30.11F
MONTICELLO     PTCLDY    75  54  46 S12       30.16S
$$

NYZ026>034-041>043-260100-
NORTH


CITY           SKY/WX    TMP DP  RH WIND       PRES   REMARKS
WATERTOWN      LGT RAIN  69  63  81 CALM      29.97F
FORT DRUM      NOT AVBL
MASSENA        LGT RAIN  62  61  96 CALM      30.02F FOG
PLATTSBURGH    LGT RAIN  62  59  90 CALM      30.04S
$$

NYZ001>004-010>016-019>021-260100-
WEST


CITY           SKY/WX    TMP DP  RH WIND       PRES   REMARKS
NIAGARA FALLS  MOCLDY    75  59  57 SW14      29.98S
BUFFALO        CLOUDY    67  60  78 SW10      30.02S
DUNKIRK        CLOUDY    69  65  86 S6        30.02F
JAMESTOWN      CLOUDY    75  57  53 SW7       30.08S
WELLSVILLE     MOCLDY    76  55  48 SW12G20   30.11S
ROCHESTER      LGT RAIN  80  61  52 W15       30.01R
PENN YAN       CLOUDY    79  56  45 S8        30.03F
$$

             KEY
       WCI = WIND CHILL INDEX
       VSB = VISIBILITY
       HX  = HEAT INDEX
$$



USA.gov is the U.S. government's official web portal to all federal, state and local government web resources and services.